Vertical_Velocity
-0 -2 -2 1 0 -2 -1 -1 -2 -1 -2 -2 -0 0 -2 -2 -1 3 2 -1 -3 -0 1 -5 -6 -6 -5 -4 -3 -2 -2 5 3 -0 -3 -3 -3 -5 1 1 3 3 -3 0 3 4 1 1 5 2 -4 1 -2 -0
-1 -2 -1 -0 -1 -1 -1 -2 -1 -3 -0 -1 -1 -1 -4 -1 -4 -1 -3 -1 -0 -4 -4 -5 -3 -2 -1 -1 -1 -3 -3 -5 -4 -3 0 -2 1 -3 -4 -2 5 -1 -5 -1 5 -11 -1 1 2 2 2 -0 0 -1
1 -0 -2 -2 -2 -3 -3 -1 -2 -2 2 -2 -1 -1 -2 -1 -1 -1 -1 2 3 -2 1 -3 0 -1 -1 -1 -2 1 2 -1 3 -1 -1 -1 -1 2 -3 -5 -5 -4 -6 -5 -4 0 -3 1 -1 2 1 3 -0 -2
1 -2 -1 -3 -2 -2 -1 -1 -2 -1 -2 -2 -3 -1 1 -3 0 -6 0 0 0 3 2 -1 1 -0 -2 -0 0 -0 1 -2 -1 0 -2 -0 -1 5 -1 0 -2 -5 -3 -0 3 4 -4 -0 0 2 3 2 4 2
0 0 -0 -3 -4 -3 -0 -3 -1 -3 -1 -3 -3 -1 1 -1 -4 -5 -5 1 0 -4 -1 1 1 0 -1 -1 0 0 0 -0 -1 1 1 -0 1 -0 -1 1 -1 -3 -4 0 -2 -5 -1 -1 3 1 1 3 2 -1
1 -0 -2 -3 -2 -1 -4 -2 -1 -4 -3 -5 0 0 -5 -2 -4 -3 0 -4 -1 -5 -1 2 -1 0 0 -0 1 2 -3 0 1 2 0 2 1 -1 -1 -0 0 -1 -3 -0 -5 -5 0 1 -3 1 2 1 2 2
1 0 -1 -2 0 -2 -4 -1 -3 -3 -5 -3 3 -1 -2 -1 -2 -6 -2 -2 -0 -2 -2 2 0 -1 -1 -1 -0 -0 1 0 -0 1 -0 0 1 -3 -0 -1 1 -0 2 -5 -4 -4 2 1 -0 3 5 2 6 1
2 -2 -3 2 -2 -2 -0 -5 -3 -3 -6 -2 1 -4 -6 0 -1 -4 -4 6 9 1 -3 1 -0 -1 -1 -0 1 -1 -1 -0 0 1 1 1 1 -1 -2 -2 -3 -3 -2 -1 -3 -3 5 3 -2 -1 1 0 1 -1
0 -2 0 -1 -2 1 -2 -4 -4 -1 -1 0 -4 -1 -6 -0 -4 -10 -4 -3 2 2 -1 -0 -0 0 -1 -0 1 -1 -1 -4 -2 1 1 -0 -0 -1 -2 -2 -1 -2 -1 2 -4 1 0 -5 -0 2 3 1 3 -0
-1 0 1 -4 2 -3 -4 -2 -1 -2 -1 -0 -2 -3 -1 2 -0 -4 4 -3 -2 1 0 -1 -1 -0 1 1 -0 -1 -1 -4 -2 4 -4 -1 -1 0 0 1 3 4 2 4 2 0 -3 -1 2 -0 2 3 3 1
2 -0 -2 -1 -1 -5 -2 -3 -2 1 -3 -5 -4 -0 0 -2 -7 -5 5 -0 -2 -0 0 0 0 -1 -0 -0 1 -0 -1 -3 -1 3 3 -3 0 -0 1 4 6 0 2 -0 -2 1 1 -1 -0 -0 1 0 0 -1
0 -1 -0 -1 -4 -2 -1 -4 -2 -2 -3 -2 -4 -3 -3 -10 -2 1 2 1 -1 -0 -0 -0 1 -0 -0 1 1 -1 0 -1 -1 6 1 -1 -2 0 4 7 4 1 2 4 5 2 4 2 0 -0 0 -1 3 4
0 3 -0 -5 -1 -2 -7 -2 0 -3 -3 -3 -6 -3 2 -6 -4 4 3 1 0 -0 0 -0 0 1 0 0 2 -0 0 0 -2 5 1 2 -0 2 5 8 5 4 7 7 5 6 6 3 0 3 7 9 4 5
1 -2 -2 0 -4 -3 -3 -2 -2 -2 0 -1 -1 1 -7 -3 2 4 2 -0 0 0 -0 -0 1 1 -0 -0 3 -1 1 0 -1 4 0 -1 0 1 -1 -0 -0 2 2 2 3 3 0 -2 1 6 5 3 1 1
-2 -0 -5 -4 -2 -3 -4 -4 -4 -2 -3 1 -1 -9 -3 5 1 1 2 0 -0 0 0 0 1 1 1 0 2 -2 1 2 -0 3 3 2 2 2 3 2 2 3 4 4 3 0 -1 4 8 -1 2 2 2 3
-1 -3 -5 -2 -3 -2 -5 -2 -0 -1 -2 -1 -2 -1 1 2 1 0 0 -0 -1 -0 1 1 1 1 2 1 1 -1 -1 1 -2 2 3 2 1 1 1 1 2 3 4 3 1 -0 -0 5 3 1 2 2 2 3
-3 -3 -2 -2 -5 -1 -2 -1 -3 -5 -2 -3 -4 1 2 -1 0 1 0 -1 -0 -0 1 1 1 1 2 2 1 -1 -1 2 -1 2 3 4 1 2 2 1 1 2 -1 4 6 6 6 4 3 1 1 1 1 1
-1 -3 -3 -4 -3 -4 3 -0 -1 -2 -6 -5 -5 2 7 -2 1 0 -0 -0 0 0 -0 0 2 1 2 2 2 -1 -2 -0 3 1 2 2 1 0 3 1 0 1 2 2 1 0 1 2 1 2 2 2 2 0
-5 -3 -3 1 -5 -2 -1 -2 -3 -4 -2 -3 -3 -4 0 -0 -1 0 -0 1 1 0 0 1 1 1 2 2 2 1 -1 -2 3 2 0 2 1 0 0 2 1 1 1 2 1 0 1 1 0 -1 -1 -2 -1 -0
-3 -5 -1 -6 1 -2 -3 -6 -1 -3 -3 -3 1 0 -4 -2 -1 0 -0 2 1 2 1 2 1 1 2 1 1 2 1 -0 1 2 1 1 3 1 2 3 2 2 0 -0 -0 1 1 -0 -1 0 1 1 1 1
-6 -0 -1 0 -2 -6 -4 -0 -4 -3 -4 -1 -1 -2 -3 -2 -1 0 0 1 1 -0 1 1 0 1 3 3 1 2 2 1 3 3 3 1 1 2 1 3 3 3 3 2 2 0 -0 0 0 -2 -2 0 -0 -1
-0 -0 -3 -6 -0 -3 -6 -4 -4 -1 -3 -1 -3 -3 -3 -1 1 1 -0 -0 1 -0 1 2 -0 1 3 3 2 2 2 2 2 2 1 2 1 1 1 1 -0 -0 0 0 1 1 1 0 -1 1 1 -1 -2 -2
-6 -7 -6 -4 -6 -7 -6 -3 -1 -2 -1 -3 -3 -1 -2 -3 -2 1 -1 1 0 0 1 1 0 1 2 3 3 3 3 3 2 1 2 1 1 2 2 2 2 1 1 1 -0 -1 -1 -0 -1 -0 0 -1 -1 -1
-4 -7 -7 -10 -8 -5 -3 -2 -2 -1 -2 -3 -2 -1 -1 -1 -3 -2 -0 2 2 1 2 2 1 2 3 3 3 4 4 3 1 1 1 2 3 3 2 1 1 0 0 0 0 1 1 0 -0 -1 -3 -3 -3 -3
-7 -7 -10 -6 -4 -5 -2 -1 -2 -2 -0 -1 -2 -1 -2 -1 -0 0 -1 2 3 3 3 3 3 3 3 2 2 2 2 2 2 1 1 2 2 3 2 2 1 0 0 -0 -1 -1 -1 -1 -1 -1 -1 -1 -1 -2
-12 -9 -9 -6 -2 -3 -2 -2 -1 1 -0 -1 -2 -1 -1 0 -0 -1 1 0 1 2 3 3 3 3 3 3 2 1 1 1 1 2 2 1 0 0 2 2 2 1 0 0 -0 -1 -2 -1 -1 -1 -2 -3 -3 -3
-7 -3 -5 -5 -4 -4 -3 -2 -1 -1 -1 -2 -1 -1 -1 -0 0 0 -0 0 -0 1 1 2 2 2 2 2 2 1 1 1 1 0 1 2 3 2 2 3 1 1 1 -0 -0 -1 -1 -2 -3 -4 -5 -5 -3 -3
-6 -3 -5 -5 -5 -5 -3 -3 -3 -3 -2 -2 -1 -1 -1 -1 -0 -0 -1 1 -0 -0 -0 0 1 2 1 1 1 1 1 1 1 2 2 1 2 2 1 0 1 1 1 1 0 -0 -1 -1 -2 -2 -2 -2 -3 -4
-5 -3 -4 -5 -3 -4 -3 -4 -3 -3 -3 -2 -2 -1 -2 -1 -1 -0 0 -0 -1 0 1 0 -1 -1 -0 0 1 1 1 1 1 1 1 2 2 2 1 1 2 1 0 -1 -2 -3 -3 -3 -3 -2 -2 -2 -2 -3
-3 -3 -3 -2 -3 -4 -3 -3 -2 -2 -2 -1 -1 -1 -1 -1 -1 -1 0 1 1 -0 0 1 1 0 -0 -1 -1 -0 -0 -0 0 2 2 2 2 2 1 1 1 0 -1 -1 -1 -2 -2 -2 -3 -4 -3 -4 -3 -1
-3 -2 -2 -2 -3 -3 -3 -1 -1 -1 -1 -1 -1 -0 0 -0 -1 -1 -1 -1 -0 -0 -0 -0 0 1 1 1 0 -0 0 0 0 -1 -1 -0 -1 0 1 0 -0 -1 -2 -2 -2 -2 -2 -2 -2 -2 -2 -3 -3 -3
-2 -2 -2 -1 -2 -3 -2 -1 -0 0 -0 -0 0 0 -0 -1 -1 -1 -1 -1 -0 2 1 1 0 0 1 0 1 1 1 0 0 0 -1 -1 -1 -1 0 -1 -1 -2 -3 -3 -2 -2 -2 -2 -3 -3 -3 -3 -3 -4
-1 -1 -1 -0 -1 -1 -0 -0 -0 0 0 0 -0 -0 -0 -0 -0 -0 -1 -1 -1 0 1 1 0 -1 -0 -0 -0 -0 0 -0 -0 0 -0 -0 -1 -1 -1 -1 -1 -1 -2 -2 -3 -4 -4 -3 -2 -2 -3 -3 -2 -2
Height
5670 5665 5660 5655 5649 5644 5638 5632 5625 5616 5605 5594 5583 5570 5557 5541 5526 5511 5496 5481 5471 5463 5456 5450 5445 5440 5436 5432 5429 5425 5422 5420 5416 5413 5409 5405 5403 5402 5401 5400 5398 5399 5400 5406 5413 5418 5424 5429 5435 5442 5447 5450 5454 5458
5662 5657 5652 5647 5641 5636 5630 5625 5617 5607 5597 5586 5575 5562 5550 5534 5520 5504 5491 5478 5468 5461 5456 5452 5448 5443 5438 5434 5429 5424 5421 5417 5415 5412 5410 5408 5405 5405 5404 5403 5402 5403 5404 5406 5412 5417 5424 5430 5435 5441 5445 5449 5453 5456
5652 5649 5644 5638 5632 5628 5623 5617 5610 5599 5589 5578 5567 5555 5542 5527 5512 5498 5486 5475 5465 5459 5455 5452 5448 5443 5438 5433 5429 5425 5420 5416 5413 5410 5409 5407 5405 5404 5404 5404 5404 5405 5405 5406 5412 5419 5424 5430 5436 5440 5445 5449 5452 5455
5645 5641 5636 5630 5625 5621 5616 5609 5601 5591 5581 5571 5559 5546 5532 5520 5506 5492 5482 5471 5462 5457 5454 5452 5447 5443 5438 5432 5427 5422 5417 5412 5408 5406 5405 5404 5403 5403 5402 5402 5403 5403 5405 5406 5410 5416 5424 5431 5436 5441 5445 5449 5452 5456
5637 5633 5627 5622 5618 5614 5608 5600 5593 5583 5573 5563 5551 5538 5524 5512 5500 5486 5476 5466 5458 5455 5452 5449 5446 5442 5437 5431 5425 5419 5414 5409 5405 5403 5402 5401 5400 5400 5399 5399 5399 5400 5402 5404 5408 5417 5424 5431 5436 5441 5445 5449 5453 5456
5628 5624 5619 5614 5611 5606 5600 5592 5584 5575 5566 5555 5543 5530 5518 5505 5493 5481 5471 5458 5453 5451 5449 5447 5444 5440 5435 5429 5423 5417 5411 5406 5402 5400 5398 5397 5397 5397 5396 5396 5397 5397 5399 5402 5408 5417 5425 5431 5437 5443 5447 5451 5454 5457
5619 5615 5610 5607 5603 5598 5592 5584 5576 5567 5557 5546 5534 5522 5511 5498 5486 5476 5466 5453 5448 5447 5446 5445 5442 5438 5433 5427 5420 5416 5411 5404 5399 5396 5393 5393 5392 5392 5392 5393 5393 5395 5398 5401 5408 5416 5425 5432 5438 5444 5448 5450 5453 5457
5611 5607 5603 5600 5596 5589 5582 5575 5567 5558 5548 5536 5525 5515 5504 5492 5479 5469 5456 5447 5444 5444 5443 5442 5440 5436 5431 5426 5420 5414 5409 5403 5398 5392 5389 5387 5386 5386 5386 5387 5388 5391 5395 5401 5410 5418 5426 5434 5441 5445 5447 5450 5454 5457
5602 5600 5597 5592 5587 5580 5574 5567 5558 5548 5539 5528 5517 5507 5497 5485 5474 5462 5449 5444 5442 5444 5441 5439 5437 5435 5430 5425 5420 5415 5409 5404 5398 5392 5389 5386 5383 5382 5382 5383 5385 5389 5394 5402 5412 5421 5430 5438 5443 5445 5448 5452 5455 5458
5595 5593 5589 5584 5578 5572 5565 5557 5547 5539 5530 5518 5508 5500 5489 5478 5466 5452 5442 5441 5439 5440 5438 5437 5435 5433 5430 5425 5420 5417 5411 5406 5401 5396 5393 5389 5385 5383 5383 5385 5387 5391 5396 5405 5417 5427 5435 5440 5443 5446 5449 5452 5455 5458
5587 5585 5580 5574 5569 5563 5555 5548 5539 5530 5518 5509 5502 5493 5480 5468 5457 5445 5441 5438 5436 5437 5436 5435 5434 5432 5429 5426 5422 5418 5414 5410 5407 5403 5399 5395 5391 5389 5390 5391 5393 5398 5403 5411 5422 5430 5436 5440 5445 5448 5450 5453 5456 5459
5581 5577 5570 5565 5560 5554 5546 5538 5529 5519 5509 5501 5493 5481 5470 5461 5448 5440 5438 5435 5433 5433 5432 5432 5431 5430 5428 5426 5423 5420 5417 5415 5414 5411 5406 5402 5399 5398 5398 5400 5403 5406 5412 5419 5426 5433 5439 5444 5447 5450 5451 5454 5456 5460
5572 5567 5562 5557 5551 5543 5536 5527 5517 5508 5499 5491 5482 5470 5462 5449 5440 5436 5433 5430 5429 5428 5429 5429 5429 5429 5427 5426 5423 5422 5419 5417 5419 5418 5413 5408 5408 5408 5407 5407 5411 5415 5420 5425 5431 5437 5441 5445 5449 5453 5454 5454 5457 5461
5562 5558 5553 5547 5541 5534 5525 5515 5507 5498 5489 5481 5471 5461 5450 5438 5434 5431 5428 5426 5425 5424 5425 5426 5426 5427 5426 5425 5424 5423 5422 5419 5420 5421 5418 5415 5415 5415 5416 5417 5418 5421 5425 5430 5435 5439 5444 5449 5453 5455 5456 5457 5460 5463
5554 5550 5544 5538 5531 5523 5512 5504 5496 5487 5480 5471 5459 5449 5438 5432 5428 5425 5422 5420 5420 5420 5422 5423 5424 5425 5425 5425 5424 5424 5422 5420 5421 5423 5423 5421 5421 5421 5422 5425 5427 5429 5432 5437 5441 5445 5450 5454 5454 5457 5460 5462 5464 5467
5546 5541 5535 5528 5520 5510 5502 5492 5485 5477 5468 5460 5450 5439 5431 5426 5422 5419 5417 5417 5417 5417 5419 5420 5421 5423 5424 5424 5423 5423 5423 5422 5422 5424 5425 5425 5425 5427 5429 5432 5435 5437 5440 5443 5447 5450 5454 5455 5457 5461 5463 5466 5468 5470
5536 5531 5525 5516 5507 5498 5488 5481 5474 5465 5455 5447 5437 5431 5425 5421 5417 5414 5414 5414 5414 5415 5415 5417 5419 5420 5422 5422 5423 5423 5424 5424 5424 5426 5428 5430 5431 5432 5435 5438 5441 5444 5447 5447 5449 5451 5453 5457 5460 5463 5465 5468 5470 5472
5526 5520 5512 5503 5494 5486 5478 5470 5460 5451 5441 5434 5430 5424 5419 5414 5412 5410 5410 5411 5411 5411 5413 5415 5416 5419 5420 5421 5422 5423 5424 5424 5426 5428 5429 5432 5435 5437 5438 5441 5443 5446 5449 5451 5453 5456 5458 5461 5463 5465 5468 5469 5471 5473
5515 5508 5499 5490 5482 5475 5466 5457 5448 5439 5431 5427 5421 5416 5412 5409 5406 5405 5406 5407 5408 5409 5410 5412 5414 5417 5419 5420 5421 5423 5425 5426 5427 5429 5431 5433 5436 5439 5441 5443 5446 5448 5450 5453 5455 5458 5460 5462 5465 5467 5469 5471 5473 5474
5503 5494 5486 5478 5470 5462 5453 5445 5436 5430 5426 5422 5415 5410 5406 5403 5401 5401 5402 5404 5405 5406 5407 5409 5412 5415 5417 5419 5420 5422 5425 5427 5430 5431 5433 5434 5436 5439 5442 5444 5446 5449 5452 5454 5457 5459 5462 5464 5466 5467 5469 5470 5472 5473
5491 5483 5475 5467 5458 5450 5440 5435 5429 5426 5420 5415 5410 5406 5402 5400 5398 5398 5399 5401 5402 5403 5405 5407 5409 5413 5415 5417 5419 5421 5424 5427 5430 5432 5434 5437 5439 5441 5443 5446 5448 5450 5453 5455 5457 5460 5462 5464 5466 5468 5469 5470 5471 5472
5480 5472 5464 5455 5446 5439 5435 5429 5425 5419 5414 5410 5406 5402 5399 5397 5395 5395 5396 5397 5399 5401 5402 5404 5407 5410 5413 5415 5418 5421 5424 5427 5430 5432 5434 5437 5439 5442 5445 5447 5450 5452 5454 5455 5457 5459 5461 5463 5464 5465 5467 5468 5469 5470
5470 5463 5453 5446 5440 5435 5429 5423 5418 5413 5409 5405 5402 5399 5397 5394 5392 5392 5393 5394 5396 5398 5400 5403 5405 5408 5411 5414 5417 5420 5424 5427 5429 5432 5434 5437 5440 5442 5444 5446 5448 5451 5453 5455 5456 5458 5460 5461 5462 5463 5464 5464 5465 5465
5460 5452 5447 5441 5433 5427 5420 5416 5411 5407 5404 5401 5398 5397 5395 5393 5391 5390 5389 5391 5394 5396 5398 5401 5404 5407 5410 5413 5417 5420 5423 5426 5428 5431 5433 5436 5439 5442 5444 5446 5448 5450 5451 5453 5454 5455 5456 5457 5458 5458 5459 5459 5459 5459
5456 5450 5443 5433 5425 5419 5415 5409 5404 5401 5398 5396 5395 5394 5393 5393 5392 5391 5390 5390 5392 5394 5397 5399 5403 5406 5409 5413 5416 5418 5421 5424 5427 5429 5432 5434 5437 5439 5441 5443 5445 5447 5448 5449 5450 5451 5452 5453 5454 5455 5455 5455 5454 5453
5449 5441 5433 5425 5420 5415 5408 5402 5397 5394 5392 5391 5391 5391 5391 5391 5391 5392 5392 5392 5393 5394 5397 5400 5403 5406 5409 5412 5414 5417 5420 5423 5425 5427 5430 5432 5434 5436 5438 5440 5442 5443 5445 5446 5447 5448 5449 5449 5450 5450 5449 5448 5447 5446
5442 5435 5428 5422 5415 5409 5402 5396 5391 5389 5387 5387 5387 5387 5388 5388 5389 5391 5392 5393 5394 5395 5397 5400 5402 5404 5407 5410 5412 5415 5417 5420 5423 5425 5427 5429 5431 5434 5436 5437 5438 5440 5441 5442 5443 5443 5443 5443 5443 5442 5441 5440 5439 5436
5436 5430 5424 5417 5411 5405 5399 5393 5388 5386 5384 5383 5384 5384 5385 5385 5386 5388 5389 5391 5393 5394 5396 5398 5400 5402 5404 5407 5409 5412 5414 5416 5419 5421 5423 5426 5428 5429 5431 5433 5434 5435 5436 5436 5437 5437 5437 5436 5435 5434 5433 5431 5429 5427
5430 5425 5419 5413 5407 5401 5396 5391 5387 5384 5383 5382 5382 5382 5382 5382 5383 5383 5385 5387 5389 5391 5394 5396 5398 5399 5401 5403 5405 5407 5410 5412 5415 5417 5419 5421 5423 5425 5426 5428 5429 5429 5430 5430 5430 5430 5429 5429 5428 5427 5425 5423 5421 5419
5424 5419 5414 5408 5403 5398 5393 5390 5386 5383 5381 5380 5379 5378 5378 5378 5378 5378 5379 5381 5383 5386 5389 5391 5393 5396 5398 5400 5402 5404 5406 5407 5410 5412 5414 5416 5418 5419 5420 5421 5422 5423 5423 5423 5423 5422 5422 5421 5419 5418 5417 5415 5413 5411
5418 5413 5408 5403 5399 5394 5390 5387 5384 5381 5379 5377 5375 5374 5373 5372 5372 5372 5373 5375 5376 5380 5383 5386 5388 5391 5393 5395 5397 5399 5401 5403 5405 5407 5409 5411 5412 5413 5414 5415 5416 5416 5416 5415 5415 5414 5414 5412 5411 5410 5408 5406 5404 5403
5411 5407 5402 5398 5394 5390 5387 5384 5381 5378 5375 5373 5371 5370 5369 5368 5369 5369 5370 5370 5370 5373 5376 5380 5383 5386 5388 5390 5392 5394 5396 5397 5399 5401 5403 5404 5405 5407 5407 5408 5408 5408 5408 5407 5407 5405 5404 5403 5402 5400 5399 5397 5396 5395
5403 5399 5395 5392 5388 5385 5382 5380 5377 5374 5371 5368 5366 5365 5365 5366 5366 5366 5366 5366 5366 5367 5371 5374 5377 5380 5382 5384 5386 5388 5390 5391 5393 5394 5396 5397 5398 5398 5399 5399 5399 5399 5399 5398 5397 5396 5395 5394 5392 5391 5390 5389 5388 5387